Milwaukee, WI

6:34 AM CST on December 08, 2016 (GMT -0600)
Gen Mitchell International

Weather History for KMKE - February, 2014

Change the Weather History Date:

Thursday, February 13, 2014

  Actual Average Record
Temperature  
Mean Temperature 26 °F 25 °F  
Max Temperature 30 °F 32 °F 58 °F (1882)
Min Temperature 21 °F 19 °F -18 °F (1905)
Degree Days  
Heating Degree Days 39 40  
Month to date heating degree days 693 533  
Since 1 July heating degree days 4996 4418  
Cooling Degree Days 0 0  
Month to date cooling degree days 0 0  
Year to date cooling degree days 0 0  
Moisture  
Dew Point 15 °F    
Average Humidity 73    
Maximum Humidity 92    
Minimum Humidity 54    
Precipitation  
Precipitation 0.09 in 0.06 in 0.65 in (1906)
Month to date precipitation 0.39 0.71  
Year to date precipitation 1.50 2.47  
Snow  
Snow 1.70 in 0.30 in 6.50 in (2007)
Month to date snowfall 7.3 4.7  
Since 1 July snowfall 48.2 32.7  
Snow Depth 9.00 in    
Sea Level Pressure  
Sea Level Pressure 29.71 in    
Wind  
Wind Speed 12 mph (SSW)    
Max Wind Speed 28 mph    
Max Gust Speed 36 mph    
Visibility 6 miles    
Events Fog , Snow    
T = Trace of Precipitation, MM = Missing Value Source: NWS Daily Summary

Daily Weather History Graph

Daily Weather History Graph

Search for Another Location

Airport or City:

Trip Planner

Search our weather history database for the weather conditions in past years. The results will help you decide how hot, cold, wet, or windy it might be!

Date:

Astronomy

Feb. 13, 2014 Rise Set
Actual Time 6:51 AM CST 5:20 PM CST
Civil Twilight 6:22 AM CST 5:49 PM CST
Nautical Twilight 5:49 AM CST 6:22 PM CST
Astronomical Twilight 5:16 AM CST 6:55 PM CST
Moon 4:28 PM CST (2/13) 5:45 AM CST (2/13)
Length of Visible Light 11h 27m
Length of Day
10h 28m
Waxing Gibbous, 99% of the Moon is Illuminated
Feb 13
Waxing Gibbous
Feb 14
Full
Feb 22
Last Quarter
Mar 1
New
Mar 8
First Quarter

Hourly Weather History & Observations

Time (CST) Temp. Windchill Dew Point Humidity Pressure Visibility Wind Dir Wind Speed Gust Speed Precip Events Conditions
12:52 AM 21.0 °F 16.2 °F 10.0 °F 63% 30.01 in 10.0 mi SSW 3.5 mph - N/A   Overcast
1:52 AM 21.0 °F 12.4 °F 10.0 °F 63% 29.98 in 10.0 mi South 6.9 mph - N/A   Overcast
2:52 AM 21.9 °F 15.7 °F 10.9 °F 63% 29.98 in 10.0 mi South 4.6 mph - N/A   Overcast
3:52 AM 21.9 °F 14.5 °F 10.9 °F 63% 29.95 in 10.0 mi South 5.8 mph - N/A   Overcast
4:02 AM 21.9 °F 12.5 °F 10.0 °F 60% 29.91 in 10.0 mi South 8.1 mph - N/A   Overcast
4:23 AM 21.9 °F 13.4 °F 10.9 °F 63% 29.91 in 10.0 mi South 6.9 mph - N/A   Overcast
4:52 AM 21.9 °F 13.4 °F 10.9 °F 63% 29.94 in 10.0 mi South 6.9 mph - N/A   Overcast
5:52 AM 21.9 °F 12.5 °F 10.0 °F 60% 29.92 in 10.0 mi South 8.1 mph - N/A   Overcast
6:52 AM 21.9 °F 11.7 °F 9.0 °F 58% 29.88 in 10.0 mi South 9.2 mph - N/A   Overcast
7:52 AM 21.9 °F 11.7 °F 10.0 °F 60% 29.86 in 9.0 mi South 9.2 mph - N/A   Mostly Cloudy
8:52 AM 21.9 °F 9.8 °F 8.1 °F 55% 29.82 in 10.0 mi South 12.7 mph - N/A   Mostly Cloudy
9:52 AM 23.0 °F 11.7 °F 8.1 °F 53% 29.78 in 10.0 mi South 11.5 mph - N/A   Overcast
10:44 AM 23.0 °F 11.7 °F 8.1 °F 53% 29.74 in 2.0 mi SSW 11.5 mph - 0.00 in Snow Light Snow
10:48 AM 23.0 °F 10.6 °F 8.6 °F 54% 29.74 in 0.8 mi SSW 13.8 mph 20.7 mph 0.00 in Snow Light Snow
10:52 AM 21.9 °F 7.8 °F 10.9 °F 63% 29.77 in 0.8 mi SSW 17.3 mph 21.9 mph 0.00 in Snow Light Snow
11:16 AM 23.0 °F 11.1 °F 12.0 °F 63% 29.72 in 0.8 mi South 12.7 mph - 0.00 in Snow Light Snow
11:24 AM 23.0 °F 10.6 °F 10.9 °F 60% 29.71 in 6.0 mi South 13.8 mph - 0.00 in Snow Light Snow
11:36 AM 23.0 °F 8.7 °F 10.9 °F 60% 29.70 in 2.0 mi SSW 18.4 mph - 0.00 in Snow Light Snow
11:45 AM 21.9 °F 9.2 °F 14.0 °F 72% 29.69 in 0.5 mi South 13.8 mph - 0.00 in Snow Snow
11:52 AM 21.0 °F 9.3 °F 16.0 °F 81% 29.72 in 0.2 mi South 11.5 mph - 0.00 in Snow Heavy Snow
12:07 PM 21.0 °F 8.1 °F 17.1 °F 85% 29.67 in 0.5 mi South 13.8 mph - 0.02 in Fog , Snow Snow
12:16 PM 21.0 °F 9.3 °F 18.0 °F 88% 29.66 in 0.2 mi South 11.5 mph - 0.02 in Fog , Snow Snow
12:29 PM 21.0 °F 9.9 °F 18.0 °F 88% 29.65 in 0.2 mi South 10.4 mph - 0.03 in Fog , Snow Heavy Snow
12:52 PM 21.9 °F 10.4 °F 19.0 °F 89% 29.65 in 0.5 mi SSE 11.5 mph - 0.09 in Fog , Snow Light Snow
12:59 PM 21.9 °F 11.0 °F 19.0 °F 89% 29.61 in 2.5 mi South 10.4 mph - 0.00 in Snow Light Snow
1:52 PM 25.0 °F 13.1 °F 18.0 °F 75% 29.60 in 8.0 mi South 13.8 mph - 0.00 in   Mostly Cloudy
2:11 PM 26.1 °F 14.0 °F 18.0 °F 71% 29.54 in 10.0 mi South 15.0 mph - N/A   Overcast
2:52 PM 27.0 °F 16.1 °F 17.1 °F 66% 29.56 in 10.0 mi South 12.7 mph - N/A   Overcast
3:52 PM 28.0 °F 16.5 °F 18.0 °F 66% 29.55 in 9.0 mi SW 15.0 mph 23.0 mph N/A   Overcast
4:52 PM 27.0 °F 17.3 °F 17.1 °F 66% 29.54 in 8.0 mi SSW 10.4 mph - N/A   Overcast
5:52 PM 27.0 °F 14.7 °F 19.0 °F 72% 29.53 in 8.0 mi SSW 16.1 mph - N/A   Overcast
6:52 PM 28.0 °F 20.0 °F 21.0 °F 75% 29.51 in 7.0 mi SSW 8.1 mph - 0.00 in Snow Light Snow
7:52 PM 28.9 °F 20.4 °F 21.9 °F 75% 29.50 in 5.0 mi SW 9.2 mph - 0.00 in Snow Light Snow
8:18 PM 30.0 °F 20.5 °F 23.0 °F 75% 29.47 in 5.0 mi WSW 11.5 mph - 0.00 in Snow Light Snow
8:50 PM 28.4 °F 16.6 °F 21.2 °F 74% 29.48 in 5.0 mi WNW 16.1 mph 23.0 mph 0.00 in Snow Light Snow
8:52 PM 28.9 °F 16.1 °F 21.9 °F 75% 29.52 in 5.0 mi WNW 19.6 mph 24.2 mph 0.00 in Snow Light Snow
9:52 PM 25.0 °F 11.3 °F 17.1 °F 72% 29.55 in 6.0 mi WNW 18.4 mph 27.6 mph 0.00 in Snow Light Snow
10:52 PM 23.0 °F 10.1 °F 16.0 °F 74% 29.56 in 6.0 mi WNW 15.0 mph 26.5 mph 0.00 in Snow Light Snow
11:52 PM 23.0 °F 9.2 °F 15.1 °F 72% 29.57 in 7.0 mi WNW 17.3 mph 24.2 mph 0.00 in   Overcast